[[{"header":{"parameterUnit":"m.s-1","parameterCategory":1,"la1":30.2991,"la2":30.254,"lo1":-89.0895,"lo2":-89.0444,"dy":0.0017,"dx":0.0017,"nx":28,"ny":28,"refTime":"2024-06-05T21:00:00:Z","depth":0,"parameterNumber":2,"parameterNumberName":"U-component_of_WINDS"},"data":[0,0,0,0,0,0,0,0,0,0,0,0,0,0,0,0,0,0,0,0,0,0,0,0,0,0,0,0,0,0,0,0,0,0,0,0,0,0,0,0,0,0,0,0,0,0,0,0,0,0,0,0,0,0,0,0,0,0,2.4569,2.457,0,2.4605,2.4605,2.4606,2.4548,2.4546,2.4544,2.4542,2.458,2.4583,2.4586,0,0,0,0,0,0,0,0,0,0,0,0,0,2.4452,2.4455,2.4569,2.457,2.457,2.4605,2.4605,2.4606,2.4549,2.4546,2.4544,2.4541,2.4579,2.4583,2.4586,0,0,0,0,0,0,0,0,0,0,0,0,0,2.4497,2.4456,2.4569,2.4546,2.4544,2.4605,2.4605,2.4606,2.4549,2.4546,2.4543,2.454,2.4578,2.4583,2.4587,2.4672,0,0,2.46,2.4602,0,0,0,0,0,0,0,0,2.4495,2.4501,2.4549,2.4547,2.4546,2.4569,2.4578,2.4628,2.455,2.4547,2.4542,2.4539,2.4579,2.4583,2.4596,2.4674,2.4676,2.46,2.4603,2.4605,2.4606,0,0,0,0,0,0,0,2.4492,2.45,2.4583,2.4549,2.4548,2.4534,2.4537,2.4587,2.4579,2.4547,2.4543,2.4548,2.4578,2.4592,2.4597,2.4676,2.46,2.4604,2.4607,2.4608,2.4825,2.4828,0,0,0,0,0,0,2.4491,2.4497,2.4582,2.4584,2.4512,2.4538,2.4541,2.4564,2.4579,2.4578,2.455,2.4545,2.4587,2.4592,2.4598,2.4698,2.4605,2.4609,2.4611,2.4822,2.4826,2.4829,0,0,0,0,0,0,2.4489,2.4499,2.4581,2.454,2.4549,2.4543,2.4569,2.4567,2.4581,2.4581,2.458,2.4567,2.4584,2.4592,2.4654,2.4699,2.4611,2.4614,2.4818,2.4823,2.4827,2.49,0,0,0,0,0,0,2.4486,2.4499,2.4531,2.4541,2.4551,2.4636,2.4572,2.457,2.4589,2.4582,2.4596,2.4596,2.4583,2.4648,2.4658,2.4703,2.4618,2.4814,2.482,2.4826,2.4894,2.4907,2.4918,0,0,0,0,0,2.4482,2.4551,2.4533,2.4544,2.4592,2.4639,2.4645,2.4628,2.4593,2.4625,2.4625,2.4595,2.4692,2.4655,2.4666,2.4713,2.4811,2.4818,2.4825,2.4889,2.4905,2.4918,0,0,0,0,0,0,2.4548,2.4552,2.4532,2.4606,2.4623,2.4629,2.467,2.4646,2.4673,2.4666,2.4644,2.4648,2.4714,2.472,2.4678,2.4796,2.4746,2.4755,2.479,2.4805,2.4817,2.4814,2.4621,0,0,0,0,0,2.457,2.4608,2.461,2.4675,2.4684,2.4676,2.4696,2.4681,2.4697,2.4704,2.4708,2.4725,2.4759,2.4783,2.4814,2.4894,2.4896,2.4932,2.4944,2.4954,2.4963,2.5005,2.5021,2.4853,2.4853,2.4852,0,0,2.4619,2.4626,2.4651,2.4689,2.4699,2.4739,2.4682,2.4726,2.4755,2.4711,2.4769,2.4773,2.4791,2.4862,2.4893,2.4868,2.501,2.4963,2.4971,2.4975,2.5014,2.503,2.5044,2.4858,2.4857,2.4856,0,0,2.4726,2.4736,2.4791,2.4803,2.4819,2.4813,2.4826,2.4836,2.4837,2.4895,2.4862,2.4896,2.4956,2.4969,2.4984,2.5096,2.507,2.5107,2.5171,2.5212,2.5225,2.5237,2.5276,2.5291,2.5116,2.5116,2.5116,0,2.4784,2.4842,2.4822,2.4869,2.4886,2.4847,2.4902,2.4915,2.4941,2.4954,2.4926,2.4999,2.5008,2.5081,2.5108,2.5122,2.5136,2.5105,2.5225,2.5236,2.5247,2.5284,2.5299,2.512,2.512,2.5119,2.5119,0,2.4912,2.4953,2.4995,2.5021,2.5043,2.5094,2.5082,2.5107,2.509,2.5087,2.5146,2.5155,2.5188,2.5204,2.5189,2.5275,2.5259,2.5228,2.5177,2.5268,2.5302,2.5317,2.5127,2.5125,2.5124,2.5123,0,0,2.5063,2.5076,2.5092,2.5103,2.5118,2.5149,2.5198,2.5229,2.5251,2.527,2.531,2.5361,2.5332,2.5349,2.5335,2.5371,2.5458,2.5335,2.5335,2.5357,2.5553,2.5576,2.5593,2.544,2.5443,2.5445,2.5552,0,2.517,2.5254,2.5237,2.5319,2.5356,2.5319,2.5361,2.5375,2.5373,2.5404,2.5402,2.5438,2.5397,2.5407,2.5441,2.544,2.5497,2.5432,2.5478,2.548,2.5474,2.5612,2.5636,2.5736,2.5565,2.5567,2.5569,0,2.5306,2.533,2.5415,2.5424,2.5439,2.5477,2.5504,2.5534,2.5549,2.5545,2.5563,2.5541,2.559,2.5538,2.5604,2.556,2.5578,2.558,2.5584,2.5587,2.553,2.5619,2.5768,2.5783,2.559,2.5589,2.5587,0,2.5407,2.546,2.5518,2.5529,2.554,2.5568,2.5574,2.5586,2.5605,2.5628,2.5641,2.567,2.5686,2.5708,2.5695,2.5659,2.5763,2.5711,2.5761,2.5762,2.5785,2.5784,2.5939,2.5797,2.5797,2.5796,2.5796,0,2.5528,2.5582,2.5563,2.5599,2.5658,2.5638,2.5697,2.5699,2.5709,2.5744,2.5714,2.5748,2.5728,2.5761,2.5751,2.5807,2.5814,2.5812,2.5809,2.5815,2.5815,2.5826,2.5819,2.58,2.5799,2.5799,2.5798,0,2.5651,2.5641,2.5701,2.5707,2.5709,2.5753,2.5757,2.579,2.5786,2.5831,2.584,2.5833,2.5869,2.5858,2.5897,2.589,2.5961,2.5949,2.5956,2.5953,2.6004,2.5999,2.6172,2.6193,2.6037,2.6039,2.604,0,2.5729,2.5769,2.5779,2.58,2.5808,2.5843,2.5862,2.5843,2.5865,2.5884,2.5915,2.5948,2.5974,2.6034,2.6032,2.6062,2.605,2.6108,2.6054,2.6059,2.605,2.6048,2.6052,2.6119,2.6121,2.6122,2.6124,0,2.5868,2.586,2.5889,2.5917,2.5941,2.5961,2.5979,2.5998,2.5981,2.6006,2.6043,2.6062,2.6102,2.6135,2.6162,2.6168,2.6143,2.614,2.6154,2.616,2.6162,2.6161,2.5985,2.6137,2.6135,2.6134,2.6134,2.6133,2.597,2.6004,2.6016,2.6049,2.606,2.6077,2.6109,2.6107,2.6137,2.6168,2.6155,2.6197,2.6209,2.6243,2.6252,2.6285,2.6262,2.6281,2.6286,2.6291,2.6297,2.6157,2.6289,2.6289,2.6289,2.6288,2.6288,0,2.6107,2.6113,2.6144,2.6169,2.6195,2.6169,2.6187,2.621,2.6247,2.6261,2.6287,2.6328,2.636,2.6361,2.639,2.6416,2.6405,2.6424,2.6422,2.6424,2.6316,2.6301,2.6433,2.6433,2.6432,2.6432,2.6432,2.6432,2.6182,2.6237,2.6232,2.6292,2.6297,2.6338,2.635,2.6366,2.6377,2.6424,2.645,2.645,2.6459,2.6489,2.6517,2.6516,2.6528,2.6552,2.6547,2.6446,2.6432,2.6418,2.6404,2.6555,2.6555,2.6652,2.6653,2.6653]},{"header":{"parameterUnit":"m.s-1","parameterCategory":1,"la1":30.2991,"la2":30.254,"lo1":-89.0895,"lo2":-89.0444,"dy":0.0017,"dx":0.0017,"nx":28,"ny":28,"refTime":"2024-06-05T21:00:00:Z","depth":0,"parameterNumber":3,"parameterNumberName":"V-component_of_WINDS"},"data":[0,0,0,0,0,0,0,0,0,0,0,0,0,0,0,0,0,0,0,0,0,0,0,0,0,0,0,0,0,0,0,0,0,0,0,0,0,0,0,0,0,0,0,0,0,0,0,0,0,0,0,0,0,0,0,0,0,0,1.8277,1.8279,0,1.8459,1.8461,1.8463,1.8547,1.8546,1.8546,1.8546,1.8736,1.8741,1.8746,0,0,0,0,0,0,0,0,0,0,0,0,0,1.8006,1.801,1.8277,1.8279,1.8282,1.8459,1.8461,1.8464,1.8547,1.8546,1.8546,1.8546,1.8734,1.874,1.8746,0,0,0,0,0,0,0,0,0,0,0,0,0,1.8149,1.8012,1.8277,1.8344,1.8352,1.8458,1.8461,1.8464,1.8547,1.8546,1.8546,1.8546,1.8732,1.874,1.8747,1.8801,0,0,1.8771,1.8775,0,0,0,0,0,0,0,0,1.8141,1.8159,1.8332,1.834,1.8349,1.848,1.8435,1.8577,1.8547,1.8473,1.8546,1.8546,1.8651,1.8665,1.87,1.881,1.8818,1.8772,1.8777,1.878,1.8782,0,0,0,0,0,0,0,1.8131,1.8152,1.8349,1.8334,1.8345,1.8367,1.8387,1.8462,1.8561,1.8479,1.8486,1.8506,1.8656,1.8692,1.8705,1.8821,1.8772,1.8779,1.8783,1.8786,1.8985,1.8985,0,0,0,0,0,0,1.8109,1.8143,1.8343,1.8355,1.8242,1.8372,1.8394,1.8438,1.8561,1.8579,1.8506,1.8509,1.8679,1.8696,1.8712,1.8784,1.878,1.8787,1.8792,1.8984,1.8985,1.8985,0,0,0,0,0,0,1.8103,1.8126,1.8336,1.8251,1.8279,1.8377,1.8425,1.8442,1.8479,1.8581,1.8599,1.8525,1.868,1.8701,1.8778,1.8792,1.8791,1.8798,1.8983,1.8984,1.8985,1.8927,0,0,0,0,0,0,1.8095,1.8124,1.8144,1.825,1.8283,1.8397,1.8426,1.8445,1.8492,1.8497,1.8604,1.8621,1.8681,1.8766,1.8786,1.8802,1.8804,1.8983,1.8984,1.8985,1.8928,1.8925,1.8923,0,0,0,0,0,1.8085,1.8121,1.8145,1.8168,1.831,1.8398,1.8417,1.8484,1.8492,1.8514,1.858,1.8618,1.8787,1.8773,1.8796,1.8815,1.8982,1.8983,1.8985,1.8929,1.8926,1.8923,0,0,0,0,0,0,1.8015,1.8136,1.8164,1.8235,1.8305,1.8412,1.8442,1.8479,1.8549,1.8552,1.8634,1.8657,1.8727,1.8779,1.8762,1.8874,1.8888,1.8894,1.8838,1.8836,1.8833,1.882,1.881,0,0,0,0,0,1.8007,1.8067,1.817,1.8223,1.8257,1.8343,1.8384,1.8429,1.8506,1.8537,1.8608,1.8682,1.8753,1.8797,1.8867,1.8936,1.8961,1.896,1.8958,1.8956,1.896,1.9002,1.9003,1.899,1.8989,1.8989,0,0,1.7993,1.8067,1.81,1.8211,1.8271,1.8333,1.8368,1.8431,1.8478,1.8547,1.8624,1.8679,1.8767,1.884,1.8876,1.8886,1.8969,1.8957,1.8955,1.8961,1.9003,1.9004,1.9005,1.899,1.899,1.899,0,0,1.7998,1.8059,1.8111,1.817,1.826,1.8317,1.8329,1.8431,1.8469,1.8547,1.8601,1.8658,1.8777,1.8838,1.8884,1.8913,1.8951,1.8934,1.8922,1.8962,1.8963,1.8964,1.8975,1.8978,1.8938,1.8938,1.8937,0,1.797,1.8063,1.8133,1.8193,1.8241,1.8305,1.8359,1.8413,1.8522,1.8554,1.8563,1.8713,1.8778,1.8866,1.8873,1.8908,1.8926,1.8922,1.8957,1.8959,1.8961,1.8973,1.8977,1.8935,1.8935,1.8935,1.8936,0,1.8024,1.8088,1.8118,1.8221,1.8272,1.8329,1.8408,1.8452,1.8493,1.8549,1.8629,1.8708,1.8795,1.882,1.8861,1.8915,1.8918,1.8941,1.8956,1.8959,1.8971,1.8976,1.8931,1.8932,1.8933,1.8933,0,0,1.799,1.813,1.814,1.8188,1.8292,1.8344,1.8404,1.8488,1.8525,1.8598,1.8651,1.875,1.8771,1.8824,1.8873,1.8907,1.8926,1.8926,1.893,1.8924,1.8992,1.8975,1.8979,1.8952,1.8953,1.8954,1.8985,0,1.8011,1.812,1.8184,1.8267,1.8328,1.839,1.8443,1.8513,1.8567,1.8628,1.8689,1.8758,1.8781,1.8813,1.885,1.8916,1.8941,1.8915,1.9004,1.9006,1.898,1.8985,1.8967,1.8993,1.899,1.8991,1.8992,0,1.8049,1.812,1.8208,1.8306,1.8334,1.838,1.8463,1.852,1.8602,1.8639,1.8697,1.8746,1.8814,1.8823,1.8918,1.8898,1.8938,1.8976,1.8979,1.8991,1.8999,1.8998,1.9003,1.9007,1.9,1.8999,1.8999,0,1.8017,1.8134,1.8203,1.8241,1.8357,1.8388,1.8438,1.8519,1.8566,1.8639,1.8671,1.8751,1.8795,1.8856,1.8926,1.8926,1.9014,1.9029,1.9048,1.9047,1.9065,1.9063,1.9077,1.9089,1.9089,1.9089,1.9089,0,1.8033,1.8085,1.819,1.8232,1.8293,1.8367,1.8425,1.8481,1.8552,1.8608,1.8666,1.8717,1.8806,1.8868,1.8923,1.8994,1.9013,1.9046,1.906,1.9041,1.9037,1.907,1.907,1.909,1.909,1.9089,1.9089,0,1.8007,1.8079,1.8158,1.8261,1.8288,1.8329,1.8418,1.8462,1.8519,1.8588,1.8609,1.8699,1.8776,1.8851,1.8954,1.8991,1.9061,1.908,1.9033,1.9041,1.9057,1.9054,1.9093,1.9102,1.9106,1.9106,1.9106,0,1.8013,1.8055,1.8162,1.8203,1.8251,1.8316,1.8364,1.8439,1.8487,1.8583,1.8616,1.8696,1.8764,1.8884,1.896,1.9039,1.906,1.9068,1.9073,1.9053,1.9062,1.9059,1.9064,1.9066,1.9066,1.9065,1.9065,0,1.8017,1.8051,1.8117,1.8196,1.8251,1.8317,1.8385,1.8415,1.8504,1.8555,1.8633,1.8686,1.8791,1.887,1.8958,1.9012,1.9054,1.9063,1.9072,1.9053,1.9025,1.9042,1.9028,1.9062,1.9062,1.9063,1.9063,1.9063,1.8009,1.8049,1.813,1.8202,1.8261,1.8324,1.837,1.8433,1.8499,1.859,1.863,1.8709,1.8791,1.8914,1.8966,1.903,1.9041,1.9053,1.9057,1.9059,1.9055,1.9014,1.9046,1.9047,1.9047,1.9047,1.9047,0,1.8016,1.8072,1.8137,1.823,1.8287,1.832,1.8398,1.8444,1.8512,1.8584,1.865,1.874,1.8818,1.89,1.8982,1.9018,1.9039,1.9037,1.9036,1.9048,1.904,1.9025,1.9018,1.9018,1.9018,1.9018,1.9018,1.9018,1.8027,1.8096,1.814,1.824,1.8296,1.8372,1.8414,1.8472,1.8531,1.8628,1.8693,1.8745,1.8822,1.891,1.8984,1.9006,1.9034,1.9027,1.9054,1.9046,1.9048,1.905,1.9036,1.9032,1.9032,1.9057,1.9057,1.9057]}]]